Flag for U.S.A. Weather past 2 weeks in Lancaster, California, U.S.A.

Now
47 °F

Clear.


Feels Like: 46 °F
Forecast: 52 / 87 °F
Wind: 3 mph from West

Location: Lancaster / Fox Field

Current Time: Oct 23, 2014 at 8:33:50 AM

Latest Report: Oct 23, 2014 at 7:56 AM


Visibility: 10 mi

Pressure: 30.08 "Hg

Humidity: 46%

Dew point: 27 °F

Location of LancasterLocation

Historic Weather in Lancaster — Graph

°F

Lancaster temperature yesterday

Maximum temperature yesterday: 80 °F (at 2:56 PM)
Minimum temperature yesterday: 46 °F (at 6:56 AM)
Average temperature yesterday: 63 °F

Past Weeks' High & Low Weather Summary

 TemperatureHumidityPressure
High90 °F (Oct 12, 3:56 PM)80% (Oct 17, 6:56 AM)30.14 "Hg (Oct 17, 6:56 AM)
Low42 °F (Oct 23, 5:56 AM)5% (Oct 12, 3:56 PM)29.81 "Hg (Oct 8, 4:56 PM)
Average67 °F37%29.94 "Hg
* Reported Oct 8 6:56 AM — Oct 23 6:56 AM, Lancaster, Weather by CustomWeather, © 2014

Note: Actual official high and low records may vary slightly from our data, if they occured in-between our weather recording intervals... More about our weather records

Advertising

Lancaster weather history for previous 24 hours

 ConditionsComfort  
Time TempWeatherWind HumidityBarometerVisibility
6:56 AM
Oct 23
43 °FClear.6 mph53%30.05 "Hg10 mi
5:56 AM42 °FClear.No wind53%30.03 "Hg10 mi
4:56 AM48 °FClear.3 mph46%30.02 "Hg10 mi
3:56 AM47 °FClear.3 mph50%30.01 "Hg10 mi
2:56 AM51 °FClear.6 mph44%30.02 "Hg10 mi
1:56 AM49 °FClear.5 mph44%30.04 "Hg10 mi
12:56 AM51 °FClear.No wind44%30.03 "Hg10 mi
11:56 PM
Oct 22
58 °FClear.No wind33%30.02 "Hg10 mi
10:56 PM56 °FClear.7 mph36%30.04 "Hg10 mi
9:56 PM59 °FClear.8 mph35%30.03 "Hg10 mi
8:56 PM58 °FClear.8 mph33%30.02 "Hg10 mi
7:56 PM62 °FClear.7 mph27%30.01 "Hg10 mi
6:56 PM72 °FSunny.No wind21%29.99 "Hg10 mi
5:56 PM77 °FSunny.No wind18%29.98 "Hg10 mi
4:56 PM80 °FSunny.No wind16%29.96 "Hg10 mi
3:56 PM80 °FSunny.3 mph16%29.97 "Hg10 mi
2:56 PM80 °FSunny.6 mph17%29.98 "Hg10 mi
1:56 PM77 °FSunny.8 mph18%29.99 "Hg10 mi
12:56 PM76 °FSunny.6 mph21%30.02 "Hg10 mi
11:56 AM71 °FSunny.No wind28%30.04 "Hg10 mi
10:56 AM65 °FSunny.No wind39%30.06 "Hg10 mi
9:56 AM61 °FSunny.No wind44%30.06 "Hg10 mi
8:56 AM56 °FSunny.No wind46%30.06 "Hg10 mi
Weather by CustomWeather, © 2014

See weather overviewHow to use our weather pages